Location: Great Malvern
(52.1167°N, 2.3167°W)
Time: 00:14:21
(UTC+00:00)

Cosmos 1766 - Pass Details

Date: 18 September 2020
Orbit: 522 x 544 km, 82.5° (Epoch: 23 October)

Event Time Altitude Azimuth Distance (km) Brightness Sun altitude
Exits shadow 21:09:27 57° 297° (WNW) 635 3.8 -25.2°
Drops below altitude 10° 21:13:11 10° 4° (N) 1,806 6.4 -25.7°
Sets 21:15:23 0° 8° (N) 2,706 7.3 -25.9°
